Cloud_Cover
100 100 98 92 71 5 26 76 100 100 100 100 89 91 100 100 100 100 100 100 100 100 100 100 100 100 100 100 100 100 100 100 100 100 100 100 100 100 100 100 100 100 100
100 100 100 100 99 5 5 81 98 98 78 87 85 100 100 100 100 100 100 100 100 100 100 100 100 100 100 100 100 100 100 100 100 100 100 100 100 100 100 100 100 100 100
100 100 100 100 99 22 5 28 97 89 92 81 94 100 100 100 100 100 100 100 100 100 100 100 100 100 100 100 100 100 100 100 100 100 100 100 100 100 100 100 100 100 100
100 100 100 99 100 95 48 48 100 100 99 95 100 100 100 100 100 100 100 100 100 100 100 100 96 100 100 100 100 100 100 100 100 100 100 100 100 100 100 100 100 100 100
80 85 100 100 88 5 5 25 97 78 100 100 100 100 100 100 100 100 100 100 100 100 100 100 100 100 100 100 100 100 100 100 100 100 100 100 100 100 100 100 100 100 100
90 85 85 76 5 5 28 6 47 60 99 100 100 100 100 100 100 100 100 100 100 100 100 100 100 100 100 99 100 100 100 100 100 100 100 100 100 100 100 100 100 100 100
5 4 3 5 5 5 23 5 30 99 100 100 100 100 100 100 100 100 100 100 100 100 100 100 100 100 100 100 100 98 97 99 100 100 100 100 100 100 100 99 100 100 100
0 0 0 5 5 5 18 76 86 76 96 99 100 100 100 100 100 100 99 100 100 94 100 100 100 100 100 100 100 99 96 100 100 100 100 100 100 100 100 100 100 100 100
1 5 5 5 5 12 69 80 93 99 100 100 99 100 100 100 100 100 81 60 100 80 100 98 100 100 100 100 100 100 100 100 100 100 100 100 100 100 100 100 100 100 100
5 5 5 5 10 70 86 89 100 100 97 100 100 100 100 100 100 100 100 100 94 100 99 96 100 100 100 100 100 100 100 100 100 100 100 100 100 100 100 100 100 100 100
6 5 5 9 55 56 96 100 100 100 100 99 95 100 100 100 100 100 100 100 100 100 100 100 100 100 100 100 100 100 100 100 100 100 100 100 100 100 100 100 100 100 100
61 66 92 76 5 5 5 11 43 85 100 100 100 100 100 100 100 100 100 100 98 98 100 100 100 100 100 100 100 100 100 100 100 100 100 100 100 100 100 100 100 100 100
5 5 8 51 28 5 5 5 6 62 56 54 98 100 100 100 100 100 100 100 100 99 100 100 100 100 100 100 100 100 100 100 100 100 100 100 99 100 100 100 100 100 100
5 5 21 23 5 5 3 5 5 53 46 53 95 100 100 100 100 100 100 100 100 100 100 100 100 100 100 100 100 100 100 100 100 100 100 100 100 100 98 100 100 100 100
55 27 55 38 9 5 0 5 5 26 41 56 80 100 100 100 100 100 100 100 100 100 100 100 100 100 100 100 100 100 100 100 100 100 100 100 100 100 100 100 100 99 100
100 96 25 59 26 5 5 0 0 3 5 5 9 69 96 74 55 60 96 100 100 100 99 100 100 100 100 100 100 100 100 100 100 100 100 100 100 100 100 100 100 100 100
100 66 68 54 5 5 4 0 0 0 0 0 0 1 6 5 5 5 7 41 100 99 100 100 100 100 100 100 100 100 100 100 100 100 100 100 100 100 100 100 100 100 100
100 87 85 19 6 5 3 5 0 0 0 0 0 0 1 5 4 5 5 5 13 98 100 100 100 100 100 100 100 100 100 100 100 100 100 100 100 100 100 100 100 100 100
100 95 90 11 27 6 5 4 0 0 0 0 0 0 0 0 0 4 5 27 69 86 100 100 100 100 100 100 100 100 100 100 100 100 100 100 100 100 100 100 100 100 100
100 100 99 61 11 21 4 0 0 0 0 0 0 0 0 0 0 0 2 19 69 83 100 100 100 100 100 100 100 100 100 100 100 100 100 100 100 100 100 100 100 100 100
100 100 100 12 70 5 0 0 0 0 0 0 0 0 5 0 0 0 1 5 85 100 100 100 100 100 100 100 100 100 100 100 100 100 100 100 100 100 100 100 100 100 100
100 100 80 93 5 0 0 0 0 0 0 0 0 0 0 0 0 0 4 14 99 100 100 100 100 100 100 100 100 100 100 100 100 100 100 100 100 100 100 100 100 100 100
100 100 99 10 0 0 0 0 0 0 0 0 0 0 0 0 0 4 5 6 95 100 100 100 100 100 100 100 100 100 100 100 100 100 100 100 100 100 100 100 100 100 100
100 99 13 0 0 0 0 0 0 0 0 0 0 0 0 1 1 4 5 5 61 95 100 100 100 100 100 100 100 100 100 100 100 100 100 100 100 100 100 100 100 100 100
84 6 0 0 0 0 0 0 0 0 0 0 0 0 0 0 0 0 4 2 10 48 92 100 100 100 100 100 100 100 100 100 100 100 100 100 100 100 100 100 100 100 100
0 0 0 0 0 0 0 0 0 0 0 0 0 3 0 0 0 0 0 0 3 5 54 100 100 100 100 100 100 100 100 100 100 100 100 100 100 100 100 100 100 100 100